Simultaneous Nadir Overpasses (SNOs) Predictions

Prediction of SNOs between GOES-16 and AQUA Satellite Orbit:

Table of predicted SNOs for the next 14.0 days since TLE Epoch: 1/10/2025
Index Date Time (GOES-16) GOES-16 Lat,Lon AQUA Lat,Lon Distance(km) Time Diff (sec)
1 01/12/2025 19:16:53 -0.01, -75.18 0.65, -72.07 353.62 80
2 01/13/2025 07:36:21 0.01, -75.19 0.38, -76.77 181.08 80
3 01/15/2025 07:14:36 0.01, -75.20 -0.66, -72.11 351.51 80
4 01/15/2025 19:34:13 -0.01, -75.19 -0.35, -76.85 188.36 80
5 01/17/2025 19:17:46 -0.01, -75.22 0.64, -72.17 346.14 80
6 01/18/2025 07:37:13 0.01, -75.23 0.35, -76.88 187.27 80
7 01/20/2025 07:15:25 0.01, -75.26 -0.65, -72.20 348.43 80
8 01/20/2025 19:35:01 -0.01, -75.26 -0.38, -76.93 191.05 80
9 01/22/2025 19:18:32 -0.01, -75.29 0.63, -72.25 345.79 80
10 01/23/2025 07:37:59 0.01, -75.31 0.38, -76.95 186.79 80
